Wind_Gust
13 20 16 18 18 17 14 16 15 17 17 20 17 17 16 18 18 14 23 15 16 14 13 13 15 19 13 14 18 21 23 24 22 20 20 19 18 17 17 18 18 15 14 11 14 14 15 20 12 11 10 11 9 11 14 15 14 17 24 18 15 16 21 19 17 19 21 21 19 17 18 19 21 19 19 10 12 12 9 11 16 15 14 11 12 10
12 15 17 18 16 14 15 15 17 16 13 15 16 15 17 16 19 15 20 22 20 13 15 20 23 24 15 12 18 20 24 22 23 23 21 20 19 18 20 17 17 15 16 14 12 11 12 17 16 10 8 9 9 10 11 11 13 13 14 12 15 15 14 17 18 19 17 14 18 18 17 19 17 20 20 18 9 18 15 13 15 14 15 12 12 11
17 19 19 15 14 13 14 14 15 16 17 16 18 18 19 20 19 17 16 16 21 15 15 19 21 19 13 13 13 23 22 21 22 24 23 23 19 18 18 16 16 15 15 14 14 14 14 15 16 15 10 9 8 9 11 12 10 8 10 10 11 12 16 15 17 19 19 17 20 21 20 15 15 15 14 19 18 14 25 25 19 16 14 12 12 11
18 12 16 17 16 11 14 14 16 16 17 19 17 18 18 16 15 17 14 17 14 14 17 17 22 19 14 14 15 13 19 21 24 24 22 20 21 19 16 15 16 15 13 15 15 14 14 14 15 16 16 13 11 11 12 12 7 9 9 12 14 15 16 16 16 18 17 19 15 14 16 16 15 16 15 15 20 16 15 21 26 26 18 13 12 13
16 15 11 12 9 13 19 15 15 16 17 17 18 18 19 18 14 14 14 12 19 21 20 20 25 27 15 18 18 16 16 22 23 26 21 19 20 20 17 15 16 14 12 15 14 14 16 16 16 17 15 14 15 12 10 7 7 7 8 9 12 14 17 17 19 18 20 19 14 13 11 12 10 12 14 12 15 17 21 21 21 25 25 15 14 14
21 11 11 15 16 14 16 17 15 16 18 17 15 16 18 18 19 16 17 15 17 20 17 18 25 24 15 18 22 16 25 24 21 28 20 17 19 17 17 16 13 13 14 15 15 16 16 18 16 18 16 14 13 14 11 7 6 9 10 9 9 12 15 16 16 16 17 19 21 19 19 18 18 17 15 18 14 18 22 24 24 24 23 18 13 14
17 11 10 13 15 16 16 17 12 10 14 16 13 14 14 18 18 16 18 18 19 22 14 19 25 23 15 20 16 19 21 18 22 24 25 20 17 16 17 15 15 13 13 13 14 15 16 17 18 18 17 16 17 13 10 9 8 5 6 7 8 13 12 14 16 16 18 17 18 19 20 20 21 20 16 15 15 20 24 24 24 23 28 23 18 14
16 14 14 16 16 16 14 15 12 13 16 20 10 13 13 14 16 18 20 21 22 17 19 19 24 23 22 17 12 24 20 17 17 18 24 32 14 14 14 15 12 13 12 14 15 16 15 16 17 18 18 17 17 11 10 9 11 9 7 12 10 10 11 11 13 16 17 19 17 16 17 18 18 19 19 19 19 20 21 20 23 26 27 26 27 20
13 15 16 12 13 17 14 12 11 14 18 14 11 16 17 15 17 18 19 21 21 18 23 21 18 20 21 11 12 16 18 14 15 14 13 18 14 12 12 14 12 13 11 13 16 16 15 16 17 18 19 15 16 15 10 10 9 8 7 7 9 11 8 10 12 14 17 18 15 13 13 15 14 19 21 12 12 14 16 20 24 24 28 30 30 27
14 16 14 14 14 14 12 16 14 15 20 13 13 16 15 18 20 21 22 20 21 23 22 20 17 25 16 19 12 11 15 12 14 14 14 12 9 10 11 10 11 11 11 14 14 15 15 15 15 14 16 17 16 11 9 8 8 9 7 6 13 11 10 10 12 13 12 13 14 12 13 17 15 10 12 13 15 18 24 27 29 28 28 28 28 27
19 20 22 18 16 14 13 13 15 14 17 16 15 15 19 19 20 20 20 22 20 22 23 18 19 13 22 12 13 14 14 14 15 12 12 10 9 8 9 12 11 11 10 12 13 14 15 15 14 15 18 13 14 11 11 10 8 7 7 7 9 12 13 11 12 14 12 11 12 15 12 10 9 12 15 16 16 17 19 21 23 19 19 20 21 19
20 27 19 19 16 20 14 20 17 17 15 15 20 20 19 20 18 20 20 18 21 22 16 14 19 17 18 10 11 15 12 14 14 13 12 9 8 9 7 10 9 10 10 10 13 14 15 15 16 16 16 14 13 12 11 9 11 9 5 6 6 7 9 10 15 16 18 14 15 12 11 13 16 13 14 15 16 17 13 9 9 14 14 14 15 15
15 13 20 20 24 21 20 20 17 19 14 16 17 19 20 17 13 21 20 22 19 21 12 13 15 21 16 13 13 10 12 12 10 12 13 11 10 10 9 7 10 9 9 10 11 11 14 15 15 15 14 11 11 13 10 9 9 10 10 7 8 6 9 9 9 15 16 19 20 20 18 15 16 17 16 17 17 16 11 10 14 15 16 20 19 25
13 14 17 15 23 18 16 19 11 14 13 16 16 15 15 17 18 17 15 14 16 17 13 18 17 17 12 9 10 11 11 10 9 9 9 10 9 7 8 9 9 11 10 9 8 11 13 13 12 12 11 10 9 10 9 9 8 7 8 8 7 7 9 10 8 11 11 10 13 15 14 12 14 15 14 16 15 17 12 14 12 13 13 14 19 23
10 15 14 21 16 13 18 15 13 14 13 15 11 10 11 12 17 15 9 13 14 12 16 14 12 11 8 14 14 11 8 8 9 10 9 9 9 9 8 12 12 10 10 9 8 11 11 11 10 9 8 8 7 8 9 10 8 6 6 5 6 9 9 9 13 10 8 9 11 10 12 14 13 15 12 12 12 15 14 13 14 12 11 15 16 16
14 11 13 20 13 11 16 13 12 14 17 12 10 16 18 14 15 11 11 18 17 14 15 14 10 7 11 9 12 11 10 8 8 9 9 8 7 8 8 8 8 8 9 9 8 9 8 8 9 7 6 6 7 8 8 8 7 5 6 5 6 7 6 8 9 9 10 13 13 13 12 13 13 12 12 11 11 11 10 14 14 13 13 12 15 20
13 10 8 19 21 15 16 15 12 13 14 14 12 13 18 12 11 11 13 15 11 13 24 10 14 14 16 10 12 11 11 11 11 11 10 9 7 8 7 8 8 8 7 6 8 9 7 8 8 6 5 6 6 7 7 7 6 6 6 5 5 6 6 6 6 7 7 11 15 13 10 9 11 12 14 13 12 12 12 16 18 18 16 13 15 17
14 14 16 19 17 22 16 12 14 14 15 20 18 13 19 11 14 17 15 9 14 17 16 15 13 13 14 15 7 11 13 12 13 11 11 8 7 7 6 5 8 10 10 8 10 8 7 6 6 6 6 5 5 6 6 8 6 7 7 6 9 7 7 10 11 11 8 10 13 16 14 9 9 12 14 16 16 15 13 12 11 12 16 15 13 14
15 18 13 19 21 18 18 14 16 17 17 16 13 9 15 10 13 17 14 17 17 16 17 17 17 14 13 12 8 13 17 15 12 13 10 9 8 7 7 7 8 9 7 8 7 7 5 4 5 3 7 6 4 6 7 9 8 7 7 7 6 8 7 7 9 7 10 9 11 15 15 10 8 11 14 15 15 15 15 14 14 14 14 16 16 15
8 11 14 14 13 10 15 14 10 11 13 9 12 15 12 16 17 17 15 16 19 16 12 10 13 13 17 14 18 17 16 14 13 12 11 10 8 7 6 8 8 7 8 7 6 5 6 6 6 6 6 6 5 5 4 7 7 9 7 7 9 10 10 8 6 9 12 12 11 11 10 9 8 13 17 15 16 15 16 16 13 14 14 17 17 16
12 8 12 10 10 9 9 9 10 8 8 12 11 13 12 21 13 14 10 13 15 10 13 18 16 16 15 11 13 15 14 16 15 14 12 10 10 8 8 8 8 7 7 7 7 6 7 7 6 7 6 8 4 2 4 5 8 8 10 7 9 10 10 9 7 9 10 9 12 10 13 12 9 11 14 16 18 17 16 15 14 15 15 14 16 18
10 11 13 18 13 8 11 14 8 11 14 12 13 11 13 7 7 10 13 11 13 12 18 16 19 15 16 8 12 15 19 16 14 14 13 12 11 8 8 9 12 11 9 7 6 6 6 6 6 9 11 9 7 6 7 7 8 10 8 8 10 12 11 9 10 7 8 8 10 11 10 10 9 14 12 13 14 13 13 14 15 13 15 16 17 17
11 12 16 16 15 15 22 21 20 20 16 13 12 13 17 10 12 8 12 12 11 15 15 15 18 14 11 12 18 17 18 16 14 14 13 13 12 9 9 12 11 10 12 11 7 5 4 5 5 6 9 9 9 5 5 5 7 11 11 9 9 11 11 11 10 6 10 9 10 10 11 10 9 11 13 12 12 14 17 16 16 13 14 16 14 14
8 9 11 15 13 20 27 15 19 21 18 12 15 13 22 14 13 14 11 11 15 8 7 13 13 15 9 8 13 15 13 14 14 14 15 13 12 10 10 11 12 11 13 12 10 7 6 4 4 5 6 12 7 5 3 4 8 10 10 11 11 11 12 12 11 8 7 9 9 10 12 12 10 13 13 11 10 11 11 13 11 12 13 18 15 13
12 9 16 17 15 13 14 14 16 13 18 8 12 10 12 10 10 11 12 17 18 9 12 11 15 9 11 9 10 12 13 14 15 15 16 14 12 10 9 9 8 12 12 10 8 6 5 6 8 9 8 7 7 11 7 8 8 8 11 12 12 10 10 10 11 8 7 7 8 9 10 11 11 11 12 12 12 12 13 11 14 14 13 11 10 15
13 12 13 15 15 15 17 17 15 10 11 9 6 8 10 10 9 11 6 12 12 9 14 10 11 13 11 11 11 12 13 13 14 16 15 14 13 13 9 8 9 9 9 8 6 6 7 8 9 7 8 9 7 8 9 11 9 10 10 10 7 9 8 10 11 6 8 8 9 9 8 8 9 10 9 9 11 12 12 13 13 13 14 14 15 14
10 12 11 10 11 13 13 12 10 9 11 9 7 7 9 9 15 12 10 11 14 11 13 12 9 7 8 12 15 15 16 15 16 17 18 17 14 14 12 10 9 8 8 8 7 6 5 6 6 6 7 10 6 8 6 11 10 15 10 9 7 7 6 8 9 6 9 7 6 6 7 8 8 9 9 8 9 10 12 13 13 14 14 14 15 14
13 14 13 11 10 12 12 10 8 8 10 10 10 9 9 10 11 14 12 13 14 12 12 13 10 13 15 19 16 16 17 16 17 16 18 17 16 17 17 16 15 14 13 13 13 10 9 7 7 5 5 7 7 8 6 10 10 12 10 8 8 8 6 8 7 9 8 7 6 5 6 8 7 8 8 8 11 12 11 12 13 13 13 13 16 17
11 11 12 10 13 10 11 11 9 10 8 10 9 7 9 8 9 13 11 15 10 12 16 12 14 13 14 17 18 18 20 20 18 17 20 16 15 16 16 16 17 15 14 15 15 10 13 12 8 5 7 6 7 8 11 9 10 10 8 8 9 6 6 6 6 6 6 7 6 7 5 6 8 10 10 12 13 13 12 13 15 15 16 16 17 18
12 14 11 11 14 14 12 13 12 11 9 9 9 9 9 9 11 13 13 10 15 11 11 12 16 19 14 11 16 16 13 17 17 16 16 15 15 18 18 16 15 17 16 16 15 13 12 11 9 7 7 6 6 6 8 8 9 10 8 7 7 6 7 6 7 6 6 8 7 7 7 9 11 13 13 15 15 13 13 13 14 15 16 16 17 18
9 11 8 12 15 15 17 14 13 13 11 12 13 13 10 9 11 11 10 10 10 12 9 9 10 15 15 12 14 18 18 19 17 18 17 16 15 17 17 17 16 18 18 15 13 12 12 12 11 7 7 10 8 6 7 8 8 10 10 7 6 7 6 8 9 8 7 8 8 9 10 12 12 13 13 13 16 16 15 14 14 16 16 16 17 17
8 14 13 13 13 14 14 9 13 12 12 14 12 13 14 10 11 9 15 12 8 11 9 9 9 17 14 16 13 14 18 20 19 19 16 16 16 18 18 17 16 17 16 15 15 13 13 12 9 7 6 9 8 7 10 11 8 8 10 7 8 7 7 6 8 9 8 7 10 10 9 10 12 13 12 13 14 15 14 15 16 16 16 16 16 15
12 15 13 11 15 14 13 8 12 10 11 12 15 22 20 12 8 7 10 12 12 10 6 9 15 17 16 15 15 16 18 17 18 20 18 17 17 18 20 18 17 16 17 16 16 15 14 15 13 10 7 8 8 10 8 10 9 9 9 6 4 6 9 8 7 9 8 9 10 9 9 10 13 12 12 12 12 13 15 15 15 15 14 14 12 12
12 13 12 12 15 14 16 14 11 12 14 17 17 13 18 15 13 11 10 9 7 10 15 14 17 13 14 14 16 18 18 22 24 21 20 22 20 17 16 16 14 15 16 15 17 17 16 12 9 9 10 10 10 11 11 13 8 9 10 6 8 10 8 9 7 9 9 10 10 9 10 11 13 13 12 11 12 13 14 15 14 12 11 11 12 12
12 11 13 13 14 15 12 12 13 14 18 15 11 6 11 11 9 13 10 10 9 8 9 8 10 13 19 19 19 20 21 18 17 20 17 16 15 16 17 15 11 16 17 16 16 16 14 13 13 11 11 9 8 6 8 10 10 9 9 6 8 8 10 9 7 8 7 7 9 9 11 12 11 11 10 11 12 13 13 12 11 12 11 12 13 13
10 10 11 14 14 15 16 12 12 12 14 11 9 7 7 9 6 9 10 13 14 12 12 12 14 18 16 15 17 14 15 15 15 16 16 14 16 15 13 10 13 15 18 17 17 15 13 12 12 13 11 10 11 7 11 10 7 10 11 6 10 10 11 8 7 8 8 8 7 9 10 12 11 11 10 10 12 11 11 10 11 12 12 11 10 11
14 13 11 14 10 15 11 13 19 12 11 12 10 10 13 11 9 10 11 13 12 8 15 13 13 13 14 15 15 14 10 12 12 16 12 16 15 14 14 12 13 12 13 11 15 15 13 12 10 10 11 9 11 9 13 9 10 9 9 8 10 11 9 10 8 8 7 7 8 8 9 10 11 10 10 10 12 12 11 10 10 9 10 10 10 11
14 16 10 10 12 14 15 17 17 12 14 15 15 11 7 8 9 9 10 11 10 12 10 12 13 14 14 17 16 13 11 15 14 16 15 14 14 12 14 12 12 12 13 13 11 14 12 11 10 9 12 10 9 10 10 13 11 10 10 9 8 10 8 9 8 8 8 8 8 8 10 10 11 11 10 10 12 11 9 9 9 10 10 12 12 10
16 14 14 14 14 13 13 16 17 12 16 17 15 13 9 8 11 9 13 12 12 9 9 14 14 16 17 17 15 14 16 17 19 21 18 16 17 18 16 13 13 15 15 16 17 16 15 13 13 11 11 11 9 7 10 8 10 11 9 9 7 8 8 7 8 8 9 8 8 8 10 9 10 10 9 10 10 9 9 9 9 10 10 10 10 10
17 15 13 16 12 15 15 16 17 16 18 16 14 12 9 10 9 12 11 13 10 6 10 12 16 15 14 17 18 19 21 18 17 19 15 18 17 16 18 15 14 14 13 16 13 16 16 15 11 9 11 13 11 10 11 10 11 9 10 10 7 8 6 5 6 8 8 9 8 7 9 8 9 8 8 9 7 7 7 8 8 8 7 7 9 11
18 16 14 17 16 16 13 18 19 20 18 15 13 11 11 7 11 10 11 17 8 11 9 12 15 16 19 19 16 21 17 18 18 16 14 18 16 13 12 13 16 16 15 14 16 14 15 13 14 14 12 14 12 12 10 11 12 11 11 9 8 6 6 7 6 7 7 7 8 8 9 8 9 9 6 8 8 8 6 6 6 5 5 6 7 6
17 15 14 13 18 18 14 18 21 17 20 13 11 10 10 9 8 11 16 9 10 7 6 7 11 12 18 18 14 17 17 17 14 12 16 18 20 16 16 15 12 14 22 16 12 11 13 12 9 7 12 12 11 11 10 12 13 9 9 9 8 7 7 7 7 7 6 7 8 7 7 6 9 9 8 6 8 8 7 6 6 7 4 5 6 8
19 17 16 17 18 17 15 20 15 20 12 9 12 11 10 11 16 13 11 9 9 11 10 7 10 12 15 14 17 18 15 16 13 15 15 15 15 16 14 13 19 17 15 13 11 14 16 12 15 11 9 7 6 12 14 14 12 10 8 11 9 9 7 7 8 8 8 7 7 4 5 8 9 8 6 4 6 7 7 6 7 6 6 6 6 7
16 20 17 17 18 17 18 22 21 22 16 11 17 16 15 16 12 9 13 10 7 10 11 11 7 12 19 17 19 16 17 14 10 13 12 12 13 14 12 18 12 15 14 15 19 17 12 11 9 7 10 14 12 11 11 14 12 9 9 8 8 6 6 8 7 7 6 5 6 5 6 10 9 8 6 4 5 5 6 6 7 6 7 6 7 8
18 22 19 15 15 22 21 18 18 11 11 11 11 10 13 12 7 10 10 11 11 11 10 11 14 12 20 20 19 19 17 17 19 15 17 14 13 13 12 14 18 19 20 16 16 13 11 13 12 12 10 12 12 11 11 11 14 9 10 9 7 7 9 8 7 7 5 5 7 4 7 7 7 7 7 4 5 6 8 8 8 8 5 8 8 9
15 20 10 13 17 12 20 16 8 10 13 12 11 8 11 8 8 11 13 10 11 12 13 19 13 15 14 18 20 14 19 14 15 14 13 14 15 11 11 15 13 15 15 15 12 13 13 14 13 13 12 8 9 10 13 12 14 13 12 8 7 7 10 9 8 7 5 5 5 5 7 7 6 6 3 5 5 8 11 12 9 10 5 9 7 8
17 16 18 18 11 11 18 11 14 16 14 17 16 12 12 11 14 12 10 12 12 10 12 10 18 19 17 14 18 15 11 13 13 15 15 13 15 15 16 17 16 17 18 17 16 12 11 11 11 13 11 12 10 13 13 11 10 14 12 9 6 9 9 9 8 6 3 3 5 4 5 7 6 4 6 4 6 9 10 11 11 9 7 8 9 8
18 19 17 14 15 17 16 10 9 11 15 14 15 16 17 17 15 14 12 11 13 12 14 13 16 16 16 14 13 15 13 15 16 13 13 15 16 18 17 18 17 15 14 13 10 14 14 11 10 11 10 11 10 11 13 13 10 13 11 9 9 9 9 8 8 7 5 4 5 5 4 5 6 7 4 7 10 10 7 9 10 11 10 9 9 9
14 10 14 9 16 15 15 19 19 14 16 15 14 13 14 15 11 13 12 11 12 16 12 14 18 20 18 17 15 16 16 12 15 15 13 12 14 16 18 18 18 17 15 16 12 13 17 13 12 11 10 10 11 8 8 10 14 14 13 11 11 12 10 8 7 6 6 8 8 3 6 5 6 5 8 4 6 9 12 13 10 9 8 6 10 12
14 18 10 10 13 14 17 16 11 16 14 16 17 18 16 12 15 12 8 12 12 16 16 15 12 11 16 17 21 20 21 15 10 13 15 15 16 16 14 16 14 13 14 14 16 14 14 13 13 12 11 12 9 10 13 12 14 12 12 12 14 13 12 9 7 7 7 10 6 6 6 4 6 5 4 4 9 8 4 6 6 10 13 8 7 10
18 15 17 17 15 17 15 10 10 15 12 16 17 15 13 12 15 14 13 15 15 18 18 17 15 13 13 11 16 22 21 21 16 14 14 11 13 16 17 18 17 15 13 11 11 11 13 11 12 11 10 10 8 12 15 16 14 12 10 14 13 13 11 9 8 6 7 6 9 10 9 5 4 4 6 5 4 6 5 4 4 5 7 11 10 10
Wind_Speed
2 1 2 4 6 7 8 4 6 7 7 5 2 1 3 3 6 4 1 6 9 4 1 1 6 7 5 10 12 14 14 15 15 13 11 10 10 9 9 10 9 8 5 3 4 4 4 4 5 4 3 3 5 5 6 7 8 10 7 5 7 7 7 8 8 7 8 7 5 2 4 5 2 3 8 3 4 3 4 4 6 7 7 6 6 6
6 0 6 8 8 6 8 6 5 3 2 3 1 3 7 3 5 5 1 2 3 4 1 5 8 7 5 5 12 13 16 15 15 13 12 12 11 10 13 11 9 7 4 4 4 4 4 5 6 5 4 4 1 2 4 5 6 4 2 4 6 3 3 6 9 8 6 7 8 7 5 4 3 4 1 8 0 4 2 4 4 4 6 7 6 6
1 5 7 5 7 6 1 3 4 4 3 4 2 2 3 6 4 5 5 4 1 7 1 2 8 7 4 5 5 10 11 8 9 12 11 13 11 10 10 10 9 7 6 5 4 4 4 5 6 5 5 5 4 2 3 2 0 5 6 6 5 6 7 8 8 8 9 8 8 9 9 7 2 1 3 3 9 3 5 4 5 4 4 4 6 6
1 4 8 6 2 4 3 3 5 6 4 1 5 5 3 3 5 4 5 5 4 4 1 2 9 1 6 9 9 5 9 8 8 11 10 10 13 11 10 9 9 8 7 6 4 4 3 4 4 4 5 4 5 4 3 1 3 2 3 4 6 7 7 7 8 9 9 11 10 9 7 9 8 4 5 2 9 3 5 5 4 4 4 3 5 6
2 5 3 1 4 4 3 4 4 5 6 3 1 0 1 3 1 1 2 5 5 5 4 5 6 3 4 9 6 6 7 11 8 10 8 7 9 9 8 9 10 9 7 5 4 4 4 5 5 4 4 4 5 5 6 2 1 1 3 5 6 7 8 8 8 7 6 6 6 5 3 4 5 2 3 4 3 8 2 4 4 5 4 3 3 4
2 3 5 5 4 5 4 5 4 2 3 4 1 1 1 1 1 1 1 3 3 2 2 5 3 3 5 6 6 3 6 8 3 9 8 8 8 7 9 9 8 7 5 6 5 4 3 3 3 4 4 5 4 5 5 4 1 2 3 3 4 5 6 7 8 6 7 8 9 9 9 9 9 8 7 9 7 6 3 5 3 4 5 4 3 3
0 5 6 3 2 3 4 2 3 3 1 1 1 0 3 4 4 4 4 5 2 0 2 1 5 3 4 4 2 2 7 6 2 5 6 6 7 7 8 8 9 8 5 4 3 3 4 3 4 4 4 3 3 3 3 3 3 0 3 5 5 6 6 5 7 6 6 8 8 11 12 11 11 11 7 7 6 6 4 3 5 4 3 3 4 3
4 7 8 7 6 6 5 5 3 3 3 2 4 3 5 7 6 3 4 4 0 3 4 3 4 3 3 3 0 0 6 4 4 2 3 4 6 6 6 8 8 7 6 6 4 3 3 3 3 3 3 3 3 3 3 3 1 2 2 2 4 4 6 5 5 6 6 6 7 7 9 9 10 11 10 8 9 6 2 4 4 5 5 4 3 4
1 5 5 5 4 4 4 3 6 3 1 4 5 5 4 3 1 2 4 3 1 4 6 6 1 3 1 3 3 2 9 2 3 2 2 3 4 6 7 8 7 6 6 5 5 4 3 3 3 1 2 3 2 3 3 3 3 2 3 1 1 2 4 5 7 6 5 4 3 3 2 6 6 7 6 5 4 7 5 5 3 3 4 3 3 3
2 2 4 2 3 1 3 5 6 5 4 3 3 4 4 4 3 4 3 5 4 4 4 5 1 2 1 3 2 1 4 5 4 3 4 3 4 5 6 6 7 6 5 4 4 4 3 3 3 2 2 3 3 3 3 3 3 2 2 0 0 1 3 5 7 8 7 4 2 2 3 4 4 2 4 5 6 5 4 4 3 2 2 2 0 1
3 5 6 1 1 0 2 3 1 4 2 3 4 3 6 6 4 4 3 2 4 1 2 5 3 5 2 5 7 6 4 6 6 2 1 2 4 4 6 7 6 6 5 4 4 3 3 2 3 4 4 4 4 3 3 4 3 3 2 2 1 1 2 3 7 5 6 7 7 6 7 6 5 5 6 7 6 4 3 3 3 3 1 1 1 0
8 5 2 1 2 2 1 4 4 3 2 4 1 0 5 7 7 4 4 3 1 2 2 4 4 2 4 1 4 5 4 5 8 8 6 5 5 4 4 5 5 5 4 4 4 4 4 5 5 5 5 5 5 3 3 3 3 4 3 2 0 1 1 3 3 4 5 5 7 6 6 8 7 6 5 7 6 5 5 4 3 3 4 2 2 1
6 3 2 6 2 3 1 3 6 7 7 7 5 7 2 3 3 2 2 2 2 5 1 3 5 3 0 2 2 0 3 5 4 6 7 5 4 4 4 5 4 4 4 4 3 4 4 4 3 4 5 5 5 3 3 3 3 4 4 4 3 3 2 2 3 4 3 5 5 6 7 9 9 10 8 8 7 6 6 6 5 4 5 4 4 4
6 4 4 5 5 2 3 1 3 4 4 6 3 3 3 0 1 2 3 1 3 5 3 2 2 1 2 3 3 3 3 4 4 4 4 5 5 5 4 4 5 5 5 4 3 3 3 2 2 3 4 4 4 4 4 3 3 3 3 3 4 4 6 2 1 4 5 4 3 3 4 3 6 9 8 7 8 7 6 6 6 6 6 5 3 2
3 3 3 2 1 3 2 1 2 3 1 0 2 2 5 5 3 2 2 4 3 5 5 5 0 2 2 2 1 6 4 4 5 5 3 4 5 5 4 4 5 5 4 4 3 3 2 1 1 1 3 3 4 4 4 3 3 3 3 1 0 1 2 1 4 4 4 5 4 4 2 4 4 7 5 5 6 6 5 2 3 4 4 4 5 4
3 4 7 4 4 1 1 2 1 2 4 1 1 5 5 3 5 1 4 3 2 1 3 1 1 1 3 2 0 1 3 5 5 5 5 5 4 4 4 4 4 4 4 3 4 3 1 0 0 1 3 3 3 4 4 4 4 3 3 2 2 1 1 2 4 4 4 3 4 5 8 7 5 3 6 5 3 5 5 5 4 3 2 1 1 2
3 1 3 6 3 0 0 0 2 2 1 3 2 0 2 3 5 3 2 0 3 4 4 1 0 2 2 2 1 1 4 3 4 4 4 4 5 4 4 4 4 4 4 4 3 1 1 0 1 0 1 2 2 3 4 4 3 3 4 3 3 3 2 1 1 2 2 6 6 4 2 4 5 4 5 6 7 7 6 4 3 4 5 4 2 2
2 6 5 2 2 1 1 2 2 2 3 3 2 3 1 4 4 4 3 2 1 2 4 0 4 1 3 3 2 3 5 4 4 4 4 3 4 5 4 4 4 3 3 3 2 0 1 1 1 0 0 0 3 2 4 5 3 3 3 3 3 3 4 3 2 2 0 3 3 5 5 5 5 5 6 6 7 7 7 5 4 3 4 4 4 4
3 3 3 1 2 6 3 3 6 2 1 4 5 4 2 1 0 3 4 0 0 1 2 1 2 2 7 5 3 7 7 6 5 4 5 4 4 4 4 3 3 3 3 2 0 0 2 2 3 2 1 0 3 2 2 2 4 3 3 4 3 2 2 2 2 3 3 3 1 3 5 6 5 7 6 6 6 6 5 5 5 5 3 2 2 3
2 1 4 3 0 3 3 4 1 3 6 3 3 2 0 4 2 2 4 3 5 3 1 3 1 4 7 5 10 11 10 8 7 6 6 6 5 5 4 3 2 3 3 1 1 2 3 3 3 3 2 1 1 1 2 5 4 4 3 3 3 3 3 4 3 3 5 5 5 5 5 5 4 8 7 7 6 5 5 4 3 4 4 5 3 3
0 2 1 3 4 2 1 0 1 3 0 1 1 0 0 1 2 3 0 2 2 2 3 3 2 6 7 5 8 9 9 10 10 9 6 6 5 4 4 3 2 1 1 0 1 1 1 2 2 3 3 1 1 0 1 3 3 4 4 3 3 5 6 6 4 5 6 5 6 6 7 8 2 7 6 6 6 5 4 4 4 3 4 5 4 3
1 1 1 3 4 0 3 2 2 6 4 1 4 4 7 4 1 1 4 1 1 2 2 3 7 6 7 2 6 6 7 9 8 10 7 5 5 5 4 3 3 1 0 1 3 3 3 3 3 3 2 2 3 1 2 3 5 5 5 4 4 5 6 5 6 2 5 4 3 6 6 5 4 8 6 5 2 3 2 2 1 2 1 0 1 3
3 2 2 2 3 3 5 5 5 1 3 2 4 3 3 3 5 3 2 4 1 4 2 2 1 6 5 3 4 5 6 7 8 8 7 6 6 5 4 4 3 3 2 2 3 3 3 3 2 4 1 2 1 1 2 4 4 4 4 4 4 5 6 6 6 3 6 3 3 6 7 5 5 5 8 6 5 5 3 2 0 1 0 0 2 1
2 1 0 4 4 5 3 3 2 2 2 2 1 1 3 2 4 7 4 4 4 1 0 1 1 4 3 1 3 4 5 5 6 8 10 6 5 5 5 4 4 2 2 4 3 4 4 1 1 1 1 2 1 1 2 2 3 3 3 3 4 5 5 6 5 3 2 6 4 6 6 6 4 7 8 7 5 6 5 5 5 4 1 1 1 2
1 2 3 1 2 4 3 4 3 4 2 1 1 3 2 2 3 1 4 2 1 4 6 5 6 2 2 0 2 3 3 5 7 5 10 8 5 5 5 5 4 3 3 4 5 4 2 2 3 3 3 3 2 2 4 4 3 2 3 3 4 3 4 5 5 4 3 4 4 4 6 3 2 5 8 8 7 5 5 6 6 5 6 5 5 4
2 2 2 0 1 0 1 1 2 3 4 2 1 1 3 4 4 2 1 1 2 2 4 2 3 6 4 1 3 4 4 4 5 7 4 7 8 8 5 5 5 4 5 5 4 2 1 0 1 2 2 1 2 4 5 3 3 3 2 2 2 3 5 5 4 3 4 4 4 3 4 3 3 5 6 6 7 6 5 6 5 6 6 6 6 6
1 0 2 4 4 5 6 5 5 1 0 0 2 3 4 4 4 3 4 3 5 3 5 6 4 1 2 3 4 6 6 8 7 5 7 5 5 5 5 5 5 5 5 5 4 3 1 2 2 2 2 2 2 3 3 4 3 3 2 2 2 3 3 3 3 3 4 3 3 3 3 4 5 5 5 5 6 6 7 8 8 8 7 6 6 6
2 1 3 3 4 7 7 5 3 4 2 2 3 4 5 5 5 6 5 5 4 4 6 5 5 3 7 5 6 8 8 8 8 8 7 6 6 7 5 4 5 4 4 2 2 3 4 2 1 1 3 4 3 3 3 3 3 3 3 2 2 3 4 4 4 4 4 3 3 3 4 4 5 5 5 5 7 7 7 7 8 7 6 7 8 7
4 1 3 3 4 6 6 7 5 2 2 3 4 4 5 5 5 7 6 8 5 5 8 4 5 5 5 9 11 11 12 12 11 11 11 10 6 4 4 5 6 5 4 3 4 3 4 2 2 1 0 1 3 4 7 4 3 3 4 3 3 4 4 3 4 4 4 4 4 4 3 4 5 6 7 7 8 8 7 7 7 7 7 7 7 6
3 2 3 2 3 4 6 4 3 4 3 2 3 5 6 6 7 9 8 7 9 6 7 7 6 11 8 6 10 10 8 9 9 6 4 5 7 7 7 6 6 6 6 6 5 4 4 4 4 4 2 1 1 3 5 3 3 3 4 2 3 4 4 4 5 4 4 5 4 4 5 6 7 8 8 9 9 7 7 7 6 6 7 7 6 6
1 4 3 1 2 5 6 4 6 9 6 5 6 7 7 5 6 7 4 5 5 5 4 4 6 9 6 4 5 4 6 5 5 7 9 9 8 9 8 8 8 8 8 7 5 4 4 5 4 4 3 2 1 4 4 4 4 3 2 2 3 4 4 3 5 5 5 5 5 6 6 7 7 8 8 7 8 7 8 7 6 7 7 6 6 6
2 3 2 2 2 5 4 2 2 2 7 6 5 7 9 6 5 4 4 6 4 6 4 1 2 6 5 1 3 6 8 10 11 10 9 8 9 9 10 10 9 9 8 8 6 5 5 6 5 4 3 2 3 5 6 5 4 3 3 3 3 3 4 4 5 5 5 5 6 6 6 6 7 8 7 7 8 7 6 7 8 8 7 8 9 7
3 3 1 0 0 3 8 1 6 2 2 3 8 13 13 8 5 3 3 3 7 6 3 4 8 7 6 4 6 5 10 10 9 10 9 9 10 11 12 12 11 10 10 8 8 8 8 9 6 5 4 5 5 6 4 5 5 3 1 3 2 4 5 4 4 5 5 5 6 5 5 6 8 7 7 7 6 5 6 6 7 6 6 6 4 5
3 4 1 3 1 3 7 5 2 0 1 7 9 7 11 9 8 6 4 5 5 5 6 7 8 4 4 5 9 9 9 12 14 13 13 13 11 10 10 9 9 8 7 8 10 11 10 7 5 5 7 6 5 5 5 4 5 4 2 3 2 6 4 4 4 4 5 5 5 5 6 7 7 7 6 5 6 6 7 7 6 4 4 4 5 5
4 3 2 3 1 3 3 3 3 2 7 7 7 4 7 8 6 9 3 3 4 4 1 0 1 7 11 11 11 13 14 11 8 10 8 8 9 10 11 10 7 6 9 10 10 10 9 8 8 7 7 6 5 3 4 3 4 4 5 4 5 5 5 4 4 4 4 5 4 5 7 7 7 6 5 5 6 6 7 6 5 5 4 4 4 5
4 4 2 0 2 1 2 1 0 3 4 4 6 3 1 5 3 3 2 4 6 7 6 6 8 9 9 9 6 6 7 7 5 5 10 9 9 10 9 7 7 8 10 10 12 10 8 7 6 9 8 6 6 4 4 4 4 6 4 4 6 6 6 5 4 4 4 5 4 5 6 7 6 5 5 5 5 5 4 3 3 3 3 3 4 4
8 3 3 3 1 2 2 2 6 4 6 3 2 2 3 4 3 5 5 7 5 5 9 8 8 5 5 7 6 5 3 3 4 5 5 8 9 8 9 7 8 8 9 7 10 9 8 8 6 7 7 6 7 6 5 5 6 6 5 5 5 6 5 6 4 3 3 4 4 4 5 6 6 5 4 4 4 3 3 3 2 3 2 4 3 2
7 5 3 3 3 1 1 3 4 2 2 7 9 6 4 2 3 4 3 4 4 4 6 8 9 9 9 6 5 4 6 5 3 8 9 8 8 7 3 7 7 7 7 8 7 9 8 6 5 4 7 7 6 6 5 5 7 7 7 5 4 6 5 5 4 3 4 4 4 4 5 5 6 5 4 4 4 3 2 1 0 1 0 2 1 1
2 4 6 7 3 2 1 1 2 1 5 7 9 8 5 2 7 5 2 4 4 3 4 8 8 9 11 10 7 8 8 7 10 10 10 8 6 7 9 8 8 8 9 10 11 10 8 7 8 7 7 7 6 4 5 5 7 7 6 5 4 5 5 4 3 4 4 4 4 4 4 4 5 4 4 4 3 4 3 2 2 1 0 0 0 1
5 3 5 2 2 3 2 1 4 3 4 3 4 4 4 4 5 4 1 5 4 2 4 6 9 9 9 10 11 11 11 9 9 10 6 8 9 8 11 10 9 9 8 8 8 10 9 7 6 5 6 6 7 6 4 5 7 6 5 4 4 5 4 4 4 4 4 5 4 4 4 4 4 3 4 3 2 2 3 2 0 1 1 2 1 2
3 0 3 8 6 5 5 4 2 5 6 8 6 5 2 2 5 2 5 7 4 4 5 7 10 10 9 9 9 10 10 8 9 6 6 7 7 5 6 8 10 10 10 8 9 6 7 8 9 9 8 7 8 7 5 5 7 7 7 6 5 4 4 4 3 4 5 5 5 4 4 4 4 4 3 4 4 3 1 1 2 1 1 2 4 3
0 2 1 2 4 6 5 4 7 5 9 7 3 5 4 3 2 6 6 3 6 4 4 5 8 6 7 10 8 8 8 5 1 6 10 12 13 10 8 7 6 5 6 6 8 7 6 6 6 5 6 4 7 6 4 6 8 6 5 6 5 5 5 4 4 5 4 4 3 4 4 4 4 4 4 3 2 2 1 1 1 1 0 2 4 5
8 4 5 5 2 2 2 2 3 4 4 4 6 2 1 3 6 6 2 1 4 6 5 3 6 8 8 7 5 4 5 5 7 8 9 9 10 8 7 7 8 8 7 5 5 5 8 6 6 6 6 4 5 7 7 9 8 6 5 7 6 6 5 5 5 4 4 3 1 1 3 5 5 4 2 2 4 4 3 1 1 0 1 3 4 4
3 3 2 4 5 5 4 3 5 9 6 5 9 6 5 8 3 5 6 3 3 4 5 4 2 7 9 10 7 5 7 7 4 6 6 6 7 6 6 6 5 5 5 6 8 7 7 6 5 4 4 5 6 6 6 9 7 5 6 6 5 4 4 5 5 4 3 1 1 2 3 6 5 4 4 2 3 2 3 3 2 0 1 3 4 4
7 6 8 5 5 4 6 7 9 6 6 5 6 5 8 8 4 7 6 6 5 5 4 5 5 5 8 11 11 11 7 10 13 10 11 9 8 8 8 7 8 8 8 8 7 7 7 8 7 6 5 6 7 5 7 7 9 6 6 6 5 4 5 5 5 4 2 0 0 1 4 4 4 5 4 2 3 4 4 4 3 2 0 3 4 4
6 8 1 2 4 3 3 6 3 1 2 5 7 4 6 5 5 6 8 6 6 6 7 7 6 8 6 10 12 8 12 8 7 7 6 7 6 5 5 5 5 6 8 7 6 8 8 7 8 8 8 5 5 6 7 6 9 9 7 5 4 5 6 6 5 5 3 1 0 1 4 5 4 3 3 2 3 5 6 7 4 5 2 3 3 4
1 3 2 3 1 5 4 3 5 6 4 6 10 6 4 6 8 7 5 5 5 5 5 4 10 9 9 8 12 10 5 6 8 6 7 7 8 9 9 10 8 9 10 10 11 7 7 8 8 7 6 7 4 6 6 7 6 7 6 5 4 6 6 6 5 4 2 1 0 2 4 5 3 1 1 3 4 6 6 6 6 5 3 4 4 3
4 3 3 2 3 5 5 4 5 5 7 7 7 7 6 6 5 6 5 6 6 6 7 8 10 10 8 8 8 9 9 7 8 6 7 8 9 10 9 9 10 7 8 8 7 7 7 7 7 5 6 6 6 7 6 5 5 5 6 4 5 6 6 5 5 4 4 2 1 1 2 4 4 2 1 5 6 5 4 4 6 6 6 5 6 6
2 0 3 4 5 5 4 7 3 0 2 5 6 7 6 6 6 5 4 7 6 7 6 9 12 12 11 11 9 9 9 7 8 10 8 6 8 9 10 10 11 11 7 5 5 6 9 9 8 7 6 6 4 5 4 5 5 6 6 5 6 6 6 5 5 5 4 3 1 1 1 3 2 1 2 3 4 5 5 7 6 6 4 4 5 7
1 4 2 1 2 1 6 6 1 2 5 7 7 11 11 7 7 6 4 6 7 9 7 7 5 6 10 11 12 11 12 8 6 7 9 9 10 11 10 10 9 8 8 8 8 8 7 8 8 8 7 8 5 6 6 6 6 6 5 6 5 6 6 5 4 4 4 2 2 2 1 2 2 1 2 2 6 5 2 2 2 6 7 4 6 7
4 5 3 3 5 3 5 6 5 3 4 9 9 8 8 6 7 8 8 9 9 10 10 9 7 2 4 6 10 14 13 13 11 8 8 7 8 10 10 10 9 7 8 6 7 7 8 7 8 8 7 6 6 7 8 8 7 7 6 6 6 7 6 5 4 4 4 3 3 5 4 3 3 3 3 3 3 4 3 1 1 2 4 3 8 9
Wind_Direction
137 143 189 215 218 238 255 226 210 229 238 247 297 342 302 276 274 274 199 155 157 96 7 152 131 144 159 131 121 122 115 117 127 132 132 134 129 122 114 102 96 91 101 85 71 58 52 38 32 32 43 77 102 107 120 146 168 189 196 162 195 206 176 166 173 189 188 171 134 137 246 272 218 136 297 289 115 117 176 187 184 168 165 171 161 160
76 146 266 227 225 220 250 245 232 273 342 28 6 17 332 331 340 309 57 99 62 108 336 97 114 146 164 136 126 127 123 133 136 133 131 127 120 114 105 99 96 105 89 72 52 41 44 39 31 23 20 11 63 176 145 162 170 129 99 211 210 204 211 189 184 183 189 178 177 156 167 243 251 143 330 300 254 127 127 143 161 175 179 169 172 165
171 192 248 232 240 224 200 57 9 9 344 359 78 336 10 330 297 344 31 16 53 85 292 79 102 139 132 77 124 126 118 125 124 124 129 119 109 106 106 107 100 80 69 53 48 33 29 28 22 25 11 4 358 342 44 48 185 169 176 204 210 200 200 209 198 183 184 189 185 176 168 171 266 77 123 296 292 138 136 141 141 149 166 175 174 173
233 291 245 245 218 66 8 37 37 360 27 13 355 22 322 292 37 353 329 352 5 97 196 99 102 63 82 68 62 37 103 109 109 110 112 117 120 121 123 121 110 99 82 69 53 45 26 28 25 14 10 357 354 339 322 277 227 203 182 207 208 212 218 215 206 198 190 187 183 198 184 159 172 191 127 106 289 291 121 147 149 133 138 161 183 180
204 255 247 127 53 63 24 344 23 31 336 329 12 145 327 358 33 143 282 351 356 354 87 59 48 22 28 98 60 26 76 98 103 103 97 93 104 114 113 108 111 114 112 93 66 49 34 32 24 13 2 0 1 348 342 269 208 186 212 211 209 216 221 224 221 204 175 174 163 154 125 136 144 108 129 128 236 277 148 130 155 161 145 139 179 203
334 312 353 37 16 37 51 7 353 82 353 312 275 48 3 66 58 321 65 70 24 339 319 122 39 31 355 57 75 51 84 83 73 105 106 112 108 110 110 112 104 97 101 113 115 103 69 46 20 21 17 18 360 3 338 6 216 193 243 253 249 240 226 223 228 213 172 184 175 166 166 178 185 192 180 186 195 249 194 175 168 163 161 148 145 185
222 351 40 9 18 12 49 62 340 89 146 49 281 260 2 20 25 24 26 66 54 86 285 98 130 168 326 70 46 98 98 87 44 96 121 125 132 129 127 121 114 119 110 97 107 112 80 49 44 21 20 1 4 320 322 336 3 315 234 237 244 241 234 228 225 216 193 189 193 190 190 188 189 190 198 184 196 218 222 149 170 169 149 171 166 190
6 7 27 19 33 34 23 27 300 115 92 313 250 323 12 29 13 359 60 100 172 236 294 19 123 152 98 309 301 39 89 74 60 49 114 134 127 127 124 120 122 121 119 112 108 101 85 69 70 42 349 3 331 305 316 326 310 334 314 288 228 227 239 220 223 213 206 200 200 204 198 190 189 188 189 168 180 229 195 168 183 170 192 191 191 186
11 10 5 11 19 33 13 283 296 344 38 234 284 0 346 335 330 22 56 34 75 71 316 331 329 71 132 196 209 182 106 64 99 93 113 128 130 124 121 126 124 120 117 113 108 101 82 58 35 7 360 339 324 309 314 317 314 324 319 289 355 234 219 204 210 211 206 215 205 235 262 214 208 181 173 161 149 179 191 176 182 209 193 189 218 232
335 59 303 317 85 353 274 319 343 356 9 290 309 7 33 6 5 32 30 19 352 56 304 285 302 130 173 241 210 300 122 160 177 173 147 144 133 117 104 107 110 109 104 97 105 101 79 40 19 347 324 335 325 327 331 338 327 330 348 348 71 276 196 195 202 200 198 174 54 42 302 244 203 178 134 141 164 182 179 178 169 194 222 203 71 307
246 272 242 22 137 242 277 285 327 351 293 284 22 37 1 16 14 358 31 72 46 42 257 273 282 129 177 234 186 169 211 183 165 193 216 95 92 102 116 124 124 120 112 108 101 87 75 49 25 3 11 334 331 345 352 345 347 338 337 1 360 352 320 211 196 191 188 175 183 190 187 218 169 160 147 149 168 169 158 182 163 169 170 110 146 197
341 352 23 278 233 281 61 353 340 12 1 57 2 50 20 343 2 28 344 40 120 272 269 334 10 53 153 286 261 244 263 180 163 161 167 144 128 127 115 111 119 123 122 112 94 72 48 34 17 6 4 346 333 355 358 348 349 352 358 23 354 322 276 324 313 184 196 196 192 201 183 170 158 154 157 154 155 158 162 163 169 149 126 130 140 90
330 320 274 316 235 78 24 38 318 354 6 41 41 38 114 265 31 325 2 317 210 208 224 332 352 27 4 212 218 226 162 161 211 162 160 149 146 126 116 120 122 125 120 107 95 81 61 51 24 3 348 344 336 334 355 339 352 352 358 4 358 309 239 226 275 326 274 225 226 229 203 171 156 152 153 142 138 153 161 160 138 141 166 167 170 183
283 296 342 311 353 201 109 86 309 10 341 43 68 105 74 90 56 233 277 229 317 299 261 6 3 137 268 304 224 162 168 172 154 154 153 149 144 132 129 119 106 109 120 121 112 101 100 71 38 358 343 330 322 346 350 346 357 341 13 4 356 343 315 250 191 230 206 257 230 261 291 253 173 158 156 155 152 164 160 159 162 168 174 184 188 210
38 349 304 5 14 307 69 135 183 210 124 297 166 138 186 143 155 211 208 215 213 212 288 294 26 225 131 239 235 182 166 114 107 118 129 123 126 130 135 114 102 100 102 123 120 132 114 73 33 16 324 322 335 342 335 349 342 337 1 30 115 297 10 10 247 270 228 194 182 181 197 233 217 167 154 172 181 157 150 137 165 171 167 171 190 183
206 217 254 243 234 14 37 317 252 99 51 302 119 82 66 234 139 154 207 146 214 327 343 351 176 141 152 244 290 182 125 111 127 131 124 112 116 119 99 110 118 120 121 122 129 135 148 181 200 39 351 320 337 348 341 0 352 354 331 338 343 29 40 244 245 282 288 262 209 204 178 202 220 187 159 161 140 89 82 88 67 70 58 17 36 49
19 317 264 308 353 135 207 44 27 101 139 262 53 138 207 178 104 96 13 48 76 53 254 178 351 327 290 3 130 104 112 134 127 129 122 124 123 117 133 146 145 140 125 111 93 82 191 309 328 254 313 317 331 353 353 339 351 3 6 9 13 21 83 83 313 23 264 288 303 275 188 188 212 181 149 135 118 109 98 111 150 153 153 146 116 94
144 258 297 21 330 310 255 118 120 65 146 65 90 237 275 67 103 122 183 339 60 153 256 187 197 246 131 249 272 179 160 190 161 140 145 144 131 129 158 150 142 135 135 134 125 120 292 256 267 303 270 272 298 324 5 335 353 46 25 2 26 33 30 31 43 355 205 186 258 302 276 206 191 153 131 129 134 139 146 171 173 160 153 161 151 137
112 355 302 267 268 280 331 46 4 327 29 158 187 203 91 264 244 323 96 242 168 249 255 302 219 239 193 232 187 204 192 203 192 163 129 131 119 126 129 110 98 103 92 86 154 302 277 278 275 264 221 265 291 298 317 339 9 22 49 32 22 9 3 31 56 55 32 1 276 245 258 256 212 127 150 171 161 150 150 158 153 140 138 142 160 167
43 143 301 310 73 309 5 57 277 294 331 20 60 51 197 107 160 116 203 176 117 238 105 291 87 238 208 217 188 201 198 184 179 171 166 166 158 143 130 118 101 115 135 141 298 275 278 281 262 232 224 253 246 278 1 32 13 13 352 66 28 359 7 10 51 47 27 10 25 3 298 246 230 146 173 156 154 142 138 169 154 148 150 167 172 181
271 121 236 277 311 30 327 16 199 177 135 340 37 332 321 32 206 120 312 152 167 185 180 174 277 274 258 208 177 203 193 188 176 179 178 177 164 150 136 121 98 35 340 277 249 270 288 310 281 223 226 252 345 147 61 102 78 359 12 2 24 24 3 359 17 46 24 16 16 34 4 346 350 122 160 151 148 139 157 170 166 152 185 166 173 173
71 18 214 307 4 262 233 243 186 165 156 184 172 206 175 121 129 151 256 350 144 107 220 144 241 264 269 180 177 198 206 182 187 170 176 169 159 147 138 133 130 123 262 255 273 274 299 306 269 239 187 99 97 41 44 32 74 65 37 24 3 8 10 2 359 75 53 8 14 32 33 353 357 92 104 118 115 121 154 192 160 187 210 149 163 149
141 173 94 282 219 226 258 275 283 248 121 118 150 229 151 121 108 106 189 268 12 256 145 159 191 275 245 181 169 190 183 182 177 161 155 159 156 159 163 163 179 176 205 254 276 282 279 279 272 257 178 131 118 131 87 62 65 70 55 36 27 22 2 0 357 36 120 61 14 45 22 21 5 66 106 125 145 140 167 190 331 317 177 330 323 333
88 81 52 290 308 292 307 278 311 22 97 51 13 88 110 161 181 176 173 186 145 309 4 343 234 251 286 199 166 172 179 160 160 157 152 158 157 164 167 178 192 212 274 279 294 286 295 305 28 87 19 5 332 344 328 78 74 84 63 39 29 19 356 355 358 348 68 136 130 102 59 29 21 53 71 86 108 134 155 149 171 181 136 186 342 261
58 297 124 353 358 335 344 349 1 333 32 152 183 245 199 150 134 183 101 69 150 227 176 133 232 285 283 293 116 127 140 147 159 180 152 152 172 169 180 190 198 219 250 268 270 269 289 43 51 67 52 24 345 63 58 93 88 41 44 31 31 15 352 1 358 16 26 51 57 72 109 95 55 67 79 72 63 77 104 117 123 123 135 154 174 180
104 204 97 135 142 135 297 310 274 289 251 252 219 229 223 178 139 92 207 76 144 273 134 169 257 252 275 130 152 163 161 154 171 169 178 160 166 175 188 189 194 205 230 235 247 263 105 143 37 45 49 75 10 102 128 131 115 117 100 44 20 16 3 360 360 16 51 43 51 29 41 64 67 69 74 91 88 68 54 54 61 80 74 81 82 79
152 170 113 154 153 188 213 217 247 125 39 49 269 198 228 214 186 133 99 102 200 228 201 233 187 245 271 218 193 193 177 168 171 171 169 181 185 183 180 186 194 204 215 227 232 220 147 53 17 347 332 19 77 91 140 126 107 89 62 16 351 3 354 7 4 7 49 37 55 30 16 26 26 46 58 62 75 80 68 60 51 53 63 64 68 66
67 17 264 175 206 215 221 218 218 164 210 246 233 266 217 184 175 153 159 219 188 107 259 258 207 170 242 219 210 194 190 181 176 176 181 183 183 180 190 201 215 218 223 247 226 187 162 180 98 360 331 338 8 97 124 107 124 116 95 38 360 8 9 7 11 16 26 39 28 7 13 26 28 30 46 62 64 64 67 68 65 60 56 62 63 60
139 166 268 145 265 241 226 222 214 159 240 231 231 222 227 215 164 183 215 220 149 190 218 251 185 198 245 210 206 197 183 185 181 183 187 183 175 174 185 209 223 224 228 231 229 195 168 186 193 229 203 309 10 106 135 115 113 103 59 6 358 19 3 5 37 25 33 38 26 360 12 45 45 42 38 40 48 53 56 59 62 61 61 60 62 64
87 224 231 182 259 299 287 269 161 202 219 261 271 249 233 232 225 201 221 211 189 220 216 228 198 214 222 215 206 207 187 177 186 177 148 155 181 188 199 211 216 220 215 218 218 201 206 214 222 224 228 270 104 100 131 134 116 93 104 88 17 22 353 18 38 36 39 42 24 29 32 44 49 49 52 56 56 52 52 53 54 59 62 65 68 68
109 270 202 100 32 296 274 282 178 202 206 232 244 252 252 236 251 241 233 247 205 252 258 217 212 245 257 211 216 178 167 158 143 165 178 187 184 194 203 209 214 215 212 215 205 194 204 228 240 244 235 252 285 100 133 128 133 129 89 53 40 20 5 48 58 43 38 31 31 41 47 57 61 60 57 59 56 48 46 45 46 47 47 51 59 66
102 250 41 79 11 301 292 330 306 181 225 228 247 251 252 240 249 235 215 218 178 226 233 114 225 257 267 218 160 154 157 165 178 183 186 194 194 196 206 211 211 214 213 207 198 188 201 223 226 238 203 254 78 119 142 143 131 118 128 104 53 21 29 49 71 61 45 39 49 47 48 55 64 65 61 63 60 56 47 42 40 37 33 32 30 31
168 139 121 70 299 257 263 34 316 9 85 319 273 241 228 223 209 246 251 216 206 167 152 190 234 220 207 159 138 177 169 182 179 186 192 196 200 201 208 210 209 211 208 202 191 190 198 212 201 206 137 100 116 129 155 146 129 130 158 74 56 68 54 49 58 70 56 54 61 57 49 56 65 64 60 58 62 67 66 60 51 41 36 34 29 37
133 133 180 153 159 251 291 328 316 11 296 241 234 208 192 207 205 216 228 215 227 155 207 191 215 198 141 158 162 182 178 191 191 198 188 184 195 207 218 220 216 206 194 192 181 181 193 186 180 171 127 128 146 152 162 151 132 142 131 111 91 79 65 70 49 66 65 61 64 67 64 68 71 66 59 54 53 52 52 52 48 40 34 32 33 41
166 134 181 160 124 266 299 9 25 269 234 247 282 235 186 194 179 194 230 224 239 235 357 62 146 163 186 184 182 186 194 197 189 180 198 201 190 197 208 218 213 194 177 171 169 175 174 175 184 140 122 133 138 132 98 79 92 74 73 86 82 80 78 51 53 52 64 67 64 73 77 74 72 67 55 56 57 55 50 44 34 26 17 21 18 23
156 159 161 207 162 24 20 59 109 242 245 283 304 325 189 111 138 114 308 289 229 207 181 193 197 194 191 199 206 191 182 188 179 198 194 199 195 193 206 198 193 174 168 172 170 175 164 167 162 127 127 146 133 147 136 95 72 85 80 78 90 80 76 70 55 44 60 67 72 83 88 90 83 76 74 73 68 68 61 44 32 28 3 21 12 16
152 111 130 264 164 213 204 166 223 294 324 305 324 275 170 196 178 161 211 268 238 200 177 190 202 196 197 212 193 181 159 99 157 245 237 206 206 209 192 183 175 178 163 164 164 168 166 169 160 143 134 136 138 135 126 119 102 102 95 87 95 95 90 79 63 51 58 81 89 90 95 102 101 96 93 93 93 94 104 91 51 24 16 41 18 25
147 164 234 156 269 139 199 343 338 11 249 273 240 267 284 200 146 153 117 286 293 257 196 152 177 192 194 194 185 162 113 108 197 246 232 225 212 200 177 172 161 153 153 148 155 152 161 165 146 133 130 139 141 147 141 132 121 117 112 111 104 93 85 89 87 73 64 76 103 104 104 108 111 110 109 106 119 137 153 159 237 128 127 117 87 18
201 136 148 153 217 65 49 176 220 196 248 224 246 243 264 174 120 101 66 292 264 228 204 160 171 183 179 171 175 134 139 174 215 221 222 200 194 175 162 164 153 150 149 146 148 154 164 169 152 147 134 132 139 172 153 137 119 117 122 123 115 107 106 110 119 93 93 105 117 116 112 112 112 119 122 128 153 152 160 167 179 244 309 216 359 299
134 118 113 137 193 210 157 193 249 210 248 278 237 249 227 136 89 60 291 267 255 244 197 157 159 174 180 167 155 162 160 193 216 232 214 186 175 169 148 149 144 148 149 151 154 159 163 145 127 123 135 135 166 175 163 138 123 125 116 124 125 112 124 141 156 134 121 122 127 131 124 127 126 138 143 166 179 185 179 200 75 281 313 322 49 302
155 355 158 203 193 212 174 251 324 300 277 261 228 220 169 166 78 113 216 241 237 202 208 163 170 178 168 159 161 176 212 189 202 199 155 146 133 146 143 148 155 156 156 159 171 152 148 163 155 161 163 183 168 169 166 130 120 127 137 140 120 142 161 164 161 126 130 129 141 145 138 133 142 156 178 176 182 203 186 160 191 268 312 327 359 14
310 117 325 90 171 200 197 195 232 242 238 217 254 162 187 99 220 216 234 205 149 201 223 151 154 191 171 169 188 193 203 227 225 147 150 160 158 163 157 150 144 153 154 165 160 141 145 146 151 154 182 186 140 146 133 130 121 133 135 129 147 177 179 149 137 128 130 114 130 159 148 147 158 162 180 176 156 190 217 274 231 177 237 75 57 48
194 150 208 186 203 81 115 210 313 292 283 193 131 88 64 125 233 207 141 240 186 182 171 192 141 184 171 186 195 169 142 145 150 154 158 154 148 155 151 151 155 161 142 122 141 148 139 140 145 176 194 148 149 147 158 133 136 148 148 141 174 181 167 138 127 138 123 103 110 147 153 163 159 182 197 175 162 173 197 201 180 239 23 53 56 56
206 146 224 242 175 165 163 173 198 212 230 203 146 185 224 203 192 173 147 185 242 191 173 172 155 173 178 158 167 159 151 146 152 147 153 162 155 148 165 157 144 128 125 150 152 160 143 137 128 145 173 166 154 148 140 131 139 145 143 169 197 177 136 131 142 122 96 89 278 119 170 156 174 180 193 179 139 157 125 148 159 86 33 67 72 59
202 187 179 181 220 156 199 212 240 228 200 219 179 194 202 211 184 175 158 169 170 237 202 162 175 182 172 154 156 155 165 179 169 169 161 180 161 161 161 159 151 145 146 145 153 150 141 141 147 154 155 157 152 144 149 148 139 145 160 199 184 155 136 142 138 115 110 355 312 122 163 158 169 178 192 176 128 113 128 134 140 107 15 79 71 79
225 205 71 92 247 256 269 201 225 258 224 197 235 203 183 201 222 167 173 180 216 194 181 169 166 167 181 157 149 177 172 179 161 176 173 163 144 162 147 142 138 138 148 147 151 159 158 150 147 152 159 180 161 153 162 153 146 163 189 193 183 142 142 139 130 133 168 256 70 104 148 162 174 177 211 135 165 142 149 154 155 140 141 97 103 102
258 134 144 187 262 116 252 283 223 230 249 217 207 234 232 186 187 188 168 175 186 175 178 152 153 162 170 164 161 167 183 179 171 172 167 150 144 158 161 162 160 162 157 166 176 163 148 149 152 164 164 177 212 174 176 170 180 173 172 183 160 138 142 137 138 142 124 270 239 122 149 164 175 169 245 99 130 140 153 153 143 141 140 137 129 120
329 168 153 224 145 161 227 237 228 234 228 229 205 202 230 227 219 212 180 179 165 175 157 157 154 161 159 163 165 160 173 182 158 163 171 165 157 161 165 165 163 167 179 169 169 159 142 145 154 180 179 196 180 189 183 177 175 172 168 154 148 142 137 141 144 149 156 215 133 135 162 194 143 157 132 127 155 152 160 145 146 147 159 157 161 146
227 154 208 180 190 264 301 294 286 7 297 263 248 254 236 197 191 215 149 152 141 159 164 156 167 168 170 174 164 156 156 187 171 162 165 159 153 160 165 170 171 173 164 143 174 162 165 162 169 187 178 208 183 176 169 187 182 175 157 161 157 144 137 152 162 159 176 201 122 269 174 203 141 174 160 146 199 184 183 164 165 172 201 215 168 162
59 236 253 82 244 269 205 244 68 5 297 290 257 235 234 219 185 174 132 160 162 164 167 164 186 159 168 163 164 160 165 175 182 162 161 166 166 170 169 171 173 164 170 168 159 168 169 163 173 183 187 204 179 164 179 192 187 174 159 165 161 146 144 166 168 159 192 176 168 235 248 235 151 157 140 163 165 199 250 2 215 181 165 207 235 199
195 223 158 168 162 237 262 248 215 189 233 243 240 249 238 208 177 169 171 175 181 172 171 163 164 163 159 181 169 164 170 168 179 176 167 169 172 169 164 160 162 170 172 170 149 163 164 173 169 167 179 196 174 177 177 184 179 168 178 180 165 153 159 162 162 177 212 188 206 206 207 200 163 195 174 174 138 170 168 138 29 274 245 227 192 192